Starlink 11402

operational
NORAD ID: 61874 Int'l Des: 2024-204 Owner: SPXS Country: US Constellation: starlink
LEOCIRCULAR

Über Starlink 11402

Beschreibung wird geladen...

Live-Position

3D-Globus wird geladen...

Nächste Überflüge

Höhenverlauf

Altitude vs Time

uPlot chart will show altitude changes over time

Zweizeiliger Elementsatz

1 61874U 24204A 25351.45217526 -.00001981 00000-0 -11504-4 0 9992
2 61874 53.1597 42.0344 0001170 113.4602 246.6539 15.69701325 64588
Epoch: 17. Dez. 2025 • Age: 25 hours

Aktueller Status

Höhe 364.2 km
Geschwindigkeit 7.70 km/s
Subsatellitenpunkt 47.59°N, 101.78°W
Startdatum 9. Nov. 2024
Alter 1.1 years
Typ internet

Technische Details

Klassifizierung Payload
Masse 960.00 kg
Trockenmasse 910.00 kg
Gesamtmasse 960.00 kg
Länge 0.30 m
Durchmesser 4.10 m
Spannweite 29.00 m
Form Box + pan
Hersteller SPXS
Bus-Typ Starlink V2MD
Phasenstatus In Orbit
Besitzer/Staat SPXS/US

Große Konstellationen

Loading constellations...